Home   Weather   Tianjin   Past weeks
Flag for China

Past Weather in Tianjin, Tianjin Municipality, China — Yesterday and Last 2 Weeks

Now
52 °F

Clear.


Feels Like: 51 °F
Forecast: 58 / 53 °F
Wind: 3 mph from South

Location: Tianjin / Zhangguizhu

Current Time: Apr 20, 2019 at 2:30:41 am

Latest Report: Apr 20, 2019 at 1:30 am


Visibility: 10 mi

Pressure: 29.95 "Hg

Humidity: 54%

Dew Point: 36 °F

Location of TianjinLocation

Past Weather in Tianjin — Graph

°F

Tianjin Temperature Yesterday

Maximum temperature yesterday: 63 °F (at 2:00 pm)
Minimum temperature yesterday: 46 °F (at 1:00 am)
Average temperature yesterday: 55 °F

High & Low Weather Summary for the Past Weeks

 TemperatureHumidityPressure
High88 °F (Apr 17, 3:30 pm)93% (Apr 12, 5:30 am)30.21 "Hg (Apr 12, 5:30 am)
Low39 °F (Apr 7, 4:00 am)7% (Apr 15, 2:30 pm)29.42 "Hg (Apr 17, 3:30 pm)
Average58 °F41%29.94 "Hg
* Reported Apr 5 1:00 am — Apr 20 1:30 am, Tianjin. Weather by CustomWeather, © 2019

Note: Actual official high and low records may vary slightly from our data, if they occured in-between our weather recording intervals... More about our weather records

Advertising

Tianjin Weather History for the Previous 24 Hours

Scroll right to see more
 ConditionsComfort  
Time TempWeatherWind HumidityBarometerVisibility
1:30 am
Sat, Apr 20
52 °FClear.3 mph54%29.95 "Hg10 mi
1:00 am54 °FClear.6 mph30%29.95 "Hg10 mi
12:30 am54 °FClear.3 mph28%29.98 "Hg10 mi
12:00 am54 °FClear.3 mph33%29.98 "Hg10 mi
11:30 pm
Fri, Apr 19
54 °FPassing clouds.3 mph28%29.98 "HgN/A
11:00 pm55 °FClear.1 mph24%29.98 "Hg10 mi
10:30 pm54 °FClear.1 mph28%30.01 "Hg10 mi
10:00 pm54 °FClear.3 mph26%30.01 "Hg10 mi
9:30 pm54 °FClear.1 mph30%30.01 "Hg10 mi
9:00 pm54 °FClear.3 mph30%30.01 "Hg10 mi
8:30 pm54 °FClear.3 mph30%30.01 "Hg10 mi
8:00 pm54 °FClear.1 mph30%30.01 "Hg10 mi
7:30 pm54 °FClear.1 mph28%30.01 "Hg10 mi
7:00 pm54 °FClear.3 mph30%30.01 "Hg10 mi
6:30 pm55 °FSunny.8 mph26%30.01 "Hg10 mi
6:00 pm55 °FSunny.8 mph28%30.01 "Hg10 mi
5:30 pm57 °FSunny.10 mph27%29.98 "Hg10 mi
5:00 pm57 °FSunny.8 mph23%30.01 "Hg10 mi
4:30 pm57 °FSunny.10 mph25%30.01 "Hg10 mi
4:00 pm59 °FSunny.8 mph23%30.04 "Hg10 mi
3:30 pm61 °FPassing clouds.10 mph22%30.04 "HgN/A
3:00 pm63 °FPassing clouds.8 mph17%30.07 "HgN/A
2:30 pm63 °FPassing clouds.10 mph15%30.07 "HgN/A
2:00 pm63 °FPassing clouds.10 mph16%30.09 "HgN/A
1:30 pm61 °FPassing clouds.10 mph17%30.09 "HgN/A
1:00 pm61 °FSunny.10 mph19%30.09 "Hg10 mi
12:30 pm61 °FPassing clouds.8 mph17%30.12 "HgN/A
12:00 pm61 °FPassing clouds.10 mph19%30.12 "HgN/A
11:30 am61 °FPassing clouds.10 mph19%30.12 "HgN/A
11:00 am59 °FPassing clouds.8 mph23%30.15 "HgN/A
10:30 am59 °FPassing clouds.8 mph25%30.15 "HgN/A
10:00 am59 °FPassing clouds.8 mph25%30.15 "HgN/A
9:30 am59 °FPassing clouds.8 mph25%30.15 "HgN/A
9:00 am57 °FPassing clouds.8 mph27%30.15 "HgN/A
8:30 am57 °FPassing clouds.8 mph29%30.15 "HgN/A
8:00 am55 °FPassing clouds.3 mph31%30.15 "HgN/A
7:30 am54 °FSunny.6 mph33%30.15 "Hg10 mi
7:00 am54 °FPassing clouds.6 mph30%30.15 "HgN/A
6:30 am52 °FSunny.1 mph47%30.15 "Hg10 mi
6:00 am52 °FSunny.3 mph47%30.12 "Hg10 mi
5:30 am52 °FSunny.1 mph54%30.12 "Hg10 mi
5:00 am52 °FClear.3 mph54%30.12 "Hg10 mi
4:30 am50 °FClear.3 mph62%30.12 "Hg10 mi
4:00 am50 °FClear.3 mph67%30.12 "Hg10 mi
3:30 am48 °FClear.3 mph71%30.12 "Hg10 mi
3:00 am48 °FClear.3 mph66%30.12 "Hg10 mi
2:30 am50 °FClear.6 mph62%30.12 "Hg10 mi
2:00 am48 °FClear.3 mph58%30.12 "Hg10 mi
Weather by CustomWeather, © 2019

See weather overview